Location: Castelbiague
(43.0361°N, 0.9246°E)
Time: 09:44:56
(UTC+00:00)

USA 215 - Pass Details

Date: 17 June 2021
Orbit: 1100 x 1107 km, 123.0° (Epoch: 01 August)

Event Time Altitude Azimuth Distance (km) Brightness Sun altitude
Rises 20:55:11 0° 58° (ENE) 3,921 6.1 -11.5°
Reaches altitude 10° 20:58:12 10° 71° (ENE) 2,959 5.3 -11.8°
Maximum altitude 21:03:25 25° 125° (SE) 2,044 4.1 -12.4°
Drops below altitude 10° 21:08:37 10° 178° (S) 2,949 5.0 -13.1°
Enters shadow 21:10:14 - 186° (S) 3,448 5.4 -13.2°
